weather.gov     
National Weather Service

Terminal Aerodrome Forecast
NWS Homepage
This page is being discontinued on March 12, 2014.
The same data is available at this site. Please update your bookmarks.
Thank you, and we apologize for the inconvenience.
Please send an email to SR-SRH.Webmaster@noaa.gov with any concerns.


Current Version
Previous Version:    01  02  03  04  05  06  07  08  09  10  11  12  13  14  15  16  17  18  19  20  21  22  23  24  25  26  27  28  29  30  
   31  32  33  34  35  36  37  38  39  40  41  42  43  
[Printable]
861
FTUS44 KBMX 251700
TAFTOI
TAF
KTOI 251735Z 2518/2618 04007KT P6SM BKN050 OVC100
     FM252300 33007KT P6SM VCSH SCT020 OVC050
     FM260300 33006KT 4SM -RA SCT015 OVC050
      TEMPO 2606/2610 SCT005 BKN012
     FM261000 30006KT P6SM SCT015 SCT250=


U.S. Dept. of Commerce
NOAA National Weather Service
1325 East West Highway
Silver Spring, MD 20910
E-mail: w-nws.webmaster@noaa.gov
Page last modified: May 16, 2007
NATIONAL WEATHER SERVICE: for Safety, for Work, for Fun - FOR LIFE